• In Uzbekistan
  • List of Countries
  • For 7 days
  • Water Temperature
  • Satellite Maps
  • Weather Map
  • Weather Widgets
  • user-avatar
    Login

    Hourly Weather Lubango

    Today, 11 December, Sunday

    Time Temperature Precipitation Wind Pressure Humidity
    00:00 +15°C° 0.8 mm 0 mps 608 mmHg 86%
    01:00 +14°C° 0 mm 0 mps 607 mmHg 87%
    02:00 +14°C° 0.9 mm 0 mps 607 mmHg 88%
    03:00 +14°C° 0.9 mm 0 mps 607 mmHg 88%
    04:00 +14°C° 0.9 mm 0 mps 606 mmHg 89%
    05:00 +15°C° 0.7 mm 0 mps 607 mmHg 85%
    06:00 +16°C° 0.7 mm 0 mps 608 mmHg 81%
    07:00 +17°C° 0.7 mm 0 mps 608 mmHg 77%
    08:00 +21°C° 0.7 mm 1 mps 609 mmHg 70%
    09:00 +22°C° 0.7 mm 1 mps 610 mmHg 64%
    10:00 +24°C° 0.7 mm 1 mps 611 mmHg 57%
    11:00 +25°C° 1.2 mm 1 mps 611 mmHg 56%
    12:00 +26°C° 1.2 mm 1 mps 610 mmHg 54%
    13:00 +26°C° 1.2 mm 1 mps 610 mmHg 52%
    14:00 +25°C° 1.2 mm 2 mps 609 mmHg 56%
    15:00 +24°C° 1.2 mm 2 mps 609 mmHg 59%
    16:00 +24°C° 1.2 mm 2 mps 608 mmHg 63%
    17:00 +21°C° 0.9 mm 2 mps 608 mmHg 70%
    18:00 +19°C° 0.9 mm 2 mps 608 mmHg 77%
    19:00 +19°C° 0.9 mm 1 mps 608 mmHg 85%
    20:00 +18°C° 0.9 mm 1 mps 608 mmHg 87%
    21:00 +18°C° 0.9 mm 1 mps 608 mmHg 89%
    22:00 +16°C° 0.9 mm 1 mps 608 mmHg 91%
    23:00 +15°C° 1.1 mm 0 mps 608 mmHg 91%

    Tomorrow, 12 December, Monday

    Time Temperature Precipitation Wind Pressure Humidity
    00:00 +15°C° 1.1 mm 0 mps 608 mmHg 91%
    01:00 +15°C° 1.1 mm 0 mps 608 mmHg 91%
    02:00 +14°C° 1 mm 0 mps 607 mmHg 91%
    03:00 +14°C° 1 mm 0 mps 607 mmHg 91%
    04:00 +14°C° 1 mm 0 mps 607 mmHg 92%
    05:00 +15°C° 0.7 mm 0 mps 608 mmHg 89%
    06:00 +15°C° 0.7 mm 0 mps 608 mmHg 87%
    07:00 +16°C° 0.7 mm 0 mps 609 mmHg 84%
    08:00 +20°C° 0.6 mm 1 mps 610 mmHg 78%
    09:00 +21°C° 0.6 mm 1 mps 610 mmHg 71%
    10:00 +23°C° 0.6 mm 1 mps 611 mmHg 64%
    11:00 +23°C° 0.8 mm 1 mps 611 mmHg 64%
    12:00 +23°C° 0.8 mm 1 mps 610 mmHg 64%
    13:00 +23°C° 0.8 mm 1 mps 610 mmHg 64%
    14:00 +23°C° 1.1 mm 1 mps 609 mmHg 67%
    15:00 +22°C° 1.1 mm 1 mps 609 mmHg 70%
    16:00 +21°C° 1.1 mm 1 mps 608 mmHg 72%
    17:00 +20°C° 0.2 mm 1 mps 608 mmHg 77%
    18:00 +19°C° 0.2 mm 1 mps 608 mmHg 82%
    19:00 +18°C° 0.2 mm 1 mps 608 mmHg 86%
    20:00 +18°C° 0 mm 1 mps 608 mmHg 87%
    21:00 +18°C° 0 mm 1 mps 608 mmHg 89%
    22:00 +16°C° 0 mm 1 mps 609 mmHg 90%
    23:00 +16°C° 0.8 mm 1 mps 608 mmHg 91%

    Day after tomorrow, 13 December, Tuesday

    Time Temperature Precipitation Wind Pressure Humidity
    00:00 +16°C° 0.8 mm 1 mps 608 mmHg 92%
    01:00 +15°C° 0.8 mm 1 mps 608 mmHg 93%
    02:00 +15°C° 0.8 mm 1 mps 608 mmHg 92%
    03:00 +14°C° 0.8 mm 0 mps 608 mmHg 92%
    04:00 +14°C° 0.8 mm 0 mps 607 mmHg 92%
    05:00 +15°C° 0.5 mm 0 mps 608 mmHg 91%
    06:00 +15°C° 0.5 mm 0 mps 608 mmHg 89%
    07:00 +15°C° 0.5 mm 0 mps 609 mmHg 88%
    08:00 +16°C° 0.4 mm 0 mps 609 mmHg 84%
    09:00 +19°C° 0.4 mm 1 mps 610 mmHg 80%
    10:00 +20°C° 0.4 mm 1 mps 611 mmHg 76%
    11:00 +21°C° 0.6 mm 1 mps 610 mmHg 72%
    12:00 +21°C° 0.6 mm 1 mps 610 mmHg 69%
    13:00 +21°C° 0.6 mm 2 mps 610 mmHg 66%
    14:00 +21°C° 0.7 mm 2 mps 609 mmHg 67%
    15:00 +20°C° 0.7 mm 2 mps 609 mmHg 68%
    16:00 +20°C° 0.7 mm 2 mps 608 mmHg 69%
    17:00 +20°C° 0.5 mm 1 mps 608 mmHg 74%
    18:00 +19°C° 0.5 mm 1 mps 608 mmHg 78%
    19:00 +18°C° 0.5 mm 1 mps 608 mmHg 82%
    20:00 +18°C° 0.3 mm 1 mps 608 mmHg 84%
    21:00 +16°C° 0.3 mm 1 mps 609 mmHg 86%
    22:00 +16°C° 0.3 mm 1 mps 609 mmHg 87%
    23:00 +16°C° 0.2 mm 1 mps 609 mmHg 88%

    14 December, Wednesday

    Time Temperature Precipitation Wind Pressure Humidity
    00:00 +15°C° 0.2 mm 1 mps 608 mmHg 89%
    01:00 +15°C° 0.2 mm 1 mps 608 mmHg 91%
    02:00 +15°C° 0.1 mm 1 mps 608 mmHg 91%
    03:00 +15°C° 0.1 mm 1 mps 607 mmHg 92%
    04:00 +13°C° 0.1 mm 0 mps 607 mmHg 92%
    05:00 +14°C° 0.2 mm 0 mps 608 mmHg 89%
    06:00 +15°C° 0.2 mm 0 mps 608 mmHg 86%
    07:00 +15°C° 0.2 mm 0 mps 609 mmHg 83%
    08:00 +17°C° 0.7 mm 0 mps 610 mmHg 76%
    09:00 +20°C° 0.7 mm 1 mps 611 mmHg 70%
    10:00 +21°C° 0.7 mm 1 mps 611 mmHg 64%
    11:00 +21°C° 1.4 mm 1 mps 611 mmHg 65%
    12:00 +21°C° 1.4 mm 1 mps 610 mmHg 66%
    13:00 +21°C° 1.4 mm 1 mps 610 mmHg 66%
    14:00 +21°C° 0.5 mm 1 mps 609 mmHg 66%
    15:00 +21°C° 0.5 mm 1 mps 609 mmHg 65%
    16:00 +20°C° 0.5 mm 2 mps 609 mmHg 65%
    17:00 +20°C° 0 mm 1 mps 609 mmHg 69%
    18:00 +18°C° 0 mm 1 mps 609 mmHg 73%
    19:00 +16°C° 0 mm 1 mps 609 mmHg 78%
    20:00 +16°C° 0.2 mm 1 mps 609 mmHg 80%
    21:00 +15°C° 0.2 mm 1 mps 609 mmHg 82%
    22:00 +15°C° 0.2 mm 1 mps 609 mmHg 85%
    23:00 +15°C° 0.2 mm 1 mps 609 mmHg 87%

    15 December, Thursday

    Time Temperature Precipitation Wind Pressure Humidity
    00:00 +14°C° 0.2 mm 1 mps 608 mmHg 89%
    01:00 +14°C° 0.2 mm 1 mps 608 mmHg 91%
    02:00 +13°C° 0 mm 1 mps 608 mmHg 92%
    03:00 +12°C° 0 mm 0 mps 607 mmHg 93%
    04:00 +12°C° 0 mm 0 mps 607 mmHg 94%
    05:00 +13°C° 0 mm 0 mps 608 mmHg 89%
    06:00 +14°C° 0 mm 0 mps 608 mmHg 84%
    07:00 +15°C° 0 mm 0 mps 609 mmHg 79%
    08:00 +17°C° 0.2 mm 0 mps 610 mmHg 69%
    09:00 +21°C° 0.2 mm 1 mps 611 mmHg 59%
    10:00 +24°C° 0.2 mm 1 mps 612 mmHg 49%
    11:00 +24°C° 0.7 mm 1 mps 611 mmHg 49%
    12:00 +25°C° 0.7 mm 1 mps 611 mmHg 49%
    13:00 +25°C° 0.7 mm 1 mps 610 mmHg 49%
    14:00 +25°C° 0.2 mm 1 mps 610 mmHg 51%
    15:00 +24°C° 0.2 mm 2 mps 609 mmHg 52%
    16:00 +24°C° 0.2 mm 2 mps 609 mmHg 53%
    17:00 +21°C° 0.2 mm 2 mps 609 mmHg 60%
    18:00 +20°C° 0.2 mm 2 mps 608 mmHg 66%
    19:00 +19°C° 0.2 mm 1 mps 608 mmHg 73%
    20:00 +18°C° 0.8 mm 1 mps 608 mmHg 75%
    21:00 +18°C° 0.8 mm 1 mps 608 mmHg 77%
    22:00 +16°C° 0.8 mm 1 mps 609 mmHg 79%
    23:00 +16°C° 0.8 mm 1 mps 608 mmHg 80%

    16 December, Friday

    Time Temperature Precipitation Wind Pressure Humidity
    00:00 +16°C° 0.8 mm 1 mps 608 mmHg 81%
    01:00 +16°C° 0.8 mm 1 mps 608 mmHg 83%
    02:00 +14°C° 0.7 mm 0 mps 608 mmHg 83%
    03:00 +14°C° 0.7 mm 0 mps 607 mmHg 84%
    04:00 +14°C° 0.7 mm 0 mps 607 mmHg 85%
    05:00 +15°C° 0.3 mm 0 mps 608 mmHg 81%
    06:00 +16°C° 0.3 mm 0 mps 609 mmHg 78%
    07:00 +19°C° 0.3 mm 1 mps 610 mmHg 75%
    08:00 +21°C° 0 mm 1 mps 610 mmHg 65%
    09:00 +23°C° 0 mm 1 mps 611 mmHg 55%
    10:00 +25°C° 0 mm 1 mps 612 mmHg 46%
    11:00 +26°C° 0.1 mm 1 mps 612 mmHg 44%
    12:00 +27°C° 0.1 mm 1 mps 611 mmHg 42%
    13:00 +28°C° 0.1 mm 2 mps 611 mmHg 40%
    14:00 +27°C° 0.3 mm 2 mps 610 mmHg 44%
    15:00 +26°C° 0.3 mm 2 mps 609 mmHg 49%
    16:00 +25°C° 0.3 mm 3 mps 608 mmHg 53%
    17:00 +23°C° 0.2 mm 2 mps 608 mmHg 60%
    18:00 +20°C° 0.2 mm 2 mps 608 mmHg 68%
    19:00 +18°C° 0.2 mm 2 mps 608 mmHg 75%
    20:00 +19°C° 0.3 mm 1 mps 608 mmHg 77%
    21:00 +18°C° 0.3 mm 1 mps 608 mmHg 80%
    22:00 +16°C° 0.3 mm 1 mps 608 mmHg 82%
    23:00 +16°C° 0.1 mm 1 mps 608 mmHg 84%
    Show more